Flag for Germany Weather past 2 weeks in Bergisch Gladbach, North Rhine-Westphalia, Germany

Now
41 °F

Partly sunny.


Feels Like: 33 °F
Forecast: 34 / 38 °F
Wind: 15 mph from West

Location: Koeln / Bonn

Current Time: Dec 25, 2014 at 11:05:40 AM

Latest Report: Dec 25, 2014 at 10:20 AM


Visibility: N/A

Pressure: 30.24 "Hg

Humidity: 81%

Dew point: 36 °F

Location of Bergisch GladbachLocation

Historic Weather in Bergisch Gladbach — Graph

°F

Bergisch Gladbach temperature yesterday

Maximum temperature yesterday: 50 °F (at 12:20 AM)
Minimum temperature yesterday: 43 °F (at 7:50 PM)
Average temperature yesterday: 47 °F

Past Weeks' High & Low Weather Summary

 TemperatureHumidityPressure
High55 °F (Dec 18, 5:20 PM)100% (Dec 13, 4:50 PM)30.42 "Hg (Dec 13, 4:50 PM)
Low30 °F (Dec 14, 10:50 PM)66% (Dec 11, 2:50 PM)29.45 "Hg (Dec 12, 5:20 PM)
Average44 °F84%29.98 "Hg
* Reported Dec 10 9:20 AM — Dec 25 9:50 AM, Bergisch Gladbach, Weather by CustomWeather, © 2014

Note: Actual official high and low records may vary slightly from our data, if they occured in-between our weather recording intervals... More about our weather records

Advertising

Bergisch Gladbach weather history for previous 24 hours

 ConditionsComfort  
Time TempWeatherWind HumidityBarometerVisibility
9:50 AM
Dec 25
41 °FPartly sunny.13 mph81%30.21 "HgN/A
9:20 AM41 °FPartly sunny.14 mph81%30.21 "HgN/A
8:50 AM41 °FBroken clouds.13 mph81%30.21 "HgN/A
8:20 AM41 °FPartly cloudy.13 mph81%30.21 "HgN/A
7:50 AM39 °FPassing clouds.13 mph81%30.21 "HgN/A
7:20 AM39 °FPassing clouds.12 mph81%30.18 "HgN/A
6:50 AM39 °FPassing clouds.10 mph81%30.18 "HgN/A
6:20 AM39 °FClear.13 mph81%30.18 "Hg10 mi
5:50 AM39 °FClear.14 mph81%30.18 "Hg10 mi
5:20 AM39 °FClear.9 mph81%30.18 "Hg10 mi
4:50 AM39 °FPassing clouds.14 mph81%30.18 "HgN/A
4:20 AM39 °FPartly cloudy.12 mph81%30.18 "HgN/A
3:50 AM41 °FPassing clouds.12 mph76%30.18 "HgN/A
3:20 AM41 °FPassing clouds.13 mph76%30.18 "HgN/A
2:50 AM41 °FPassing clouds.12 mph76%30.15 "HgN/A
2:20 AM41 °FPassing clouds.12 mph76%30.15 "HgN/A
1:50 AM41 °FPassing clouds.10 mph81%30.15 "HgN/A
1:20 AM41 °FPartly cloudy.10 mph81%30.15 "HgN/A
12:50 AM41 °FClear.13 mph81%30.15 "Hg10 mi
12:20 AM41 °FPassing clouds.14 mph87%30.15 "HgN/A
11:50 PM
Dec 24
43 °FPassing clouds.8 mph87%30.15 "HgN/A
11:20 PM43 °FPassing clouds.10 mph81%30.12 "HgN/A
10:50 PM43 °FPassing clouds.12 mph87%30.12 "HgN/A
10:20 PM43 °FPartly cloudy.7 mph93%30.12 "HgN/A
9:50 PM43 °FPartly cloudy.9 mph93%30.09 "HgN/A
9:20 PM43 °FPassing clouds.9 mph93%30.09 "HgN/A
8:50 PM43 °FPassing clouds.16 mph93%30.09 "HgN/A
8:20 PM45 °FPartly cloudy.9 mph93%30.07 "Hg5 mi
7:50 PM43 °FPassing clouds.9 mph93%30.07 "HgN/A
7:20 PM45 °FPartly cloudy.15 mph93%30.04 "Hg4 mi
6:50 PM45 °FLight rain. Passing clouds.13 mph93%30.01 "HgN/A
6:20 PM48 °FPassing clouds.13 mph87%30.01 "HgN/A
5:50 PM48 °FPassing clouds.9 mph87%30.01 "HgN/A
5:20 PM48 °FPassing clouds.9 mph87%30.01 "HgN/A
4:50 PM48 °FPassing clouds.10 mph87%30.01 "HgN/A
4:20 PM48 °FDrizzle. Partly sunny.13 mph87%30.01 "HgN/A
3:50 PM48 °FDrizzle. Partly sunny.14 mph87%30.01 "Hg4 mi
3:20 PM48 °FDrizzle. Partly sunny.13 mph87%29.98 "Hg4 mi
2:50 PM48 °FLight rain. Partly sunny.14 mph82%29.98 "HgN/A
2:20 PM48 °FLight rain. Partly sunny.16 mph82%29.98 "HgN/A
1:50 PM48 °FLight rain. Partly sunny.18 mph82%29.98 "HgN/A
1:20 PM48 °FLight rain. Broken clouds.18 mph82%30.01 "HgN/A
12:50 PM48 °FLight rain. Broken clouds.18 mph82%30.01 "HgN/A
12:20 PM48 °FRain. Broken clouds.17 mph82%30.01 "HgN/A
11:50 AM48 °FRain. Broken clouds.20 mph82%30.01 "HgN/A
11:20 AM48 °FLight rain. Broken clouds.18 mph76%30.04 "HgN/A
Weather by CustomWeather, © 2014

See weather overviewHow to use our weather pages